{"data":{"norad_id":56325,"epoch":"2026-05-24T23:45:34.146720Z","epoch_age_seconds":76113,"freshness":"FRESH","line1":"1 56325U 23058J   26144.98997855 -.00000212  00000+0 -10661-4 0  9990","line2":"2 56325  97.4453 144.9314 0002525  90.8339 269.3177 15.05648188169600","mean_motion":15.05648188,"eccentricity":0.0002525,"inclination_deg":97.4453,"raan_deg":144.9314,"arg_perigee_deg":90.8339,"mean_anomaly_deg":269.3177,"bstar":-1.0661e-5,"rev_number":16960,"period_min":95.639872015042,"perigee_km":547.76747961272,"apogee_km":551.26594473737,"semimajor_km":6927.653712175,"source":"CELESTRAK","updated_at":"2026-05-25T13:38:18.001327Z"}}